GW7039 Weather Reports


Display with metric or nautical units.
time (UTC)temp
F
wind
direction
speed
MPH
gust
MPH
rain 1hr
in
rain 24hr
in
rain mn
in
humidity
%
barometer
mb
20260906115747 68 74 2.0 3.0 0.00 0.00 0.00 97 1020.1
20260906115241 67 92 0.0 3.0 0.00 0.00 0.00 98 1019.8
20260906114740 67 62 2.0 2.0 0.00 0.00 0.00 98 1019.9
20260906114236 67 46 1.0 4.0 0.00 0.00 0.00 98 1019.7
20260906113731 67 65 2.0 3.0 0.00 0.00 0.00 98 1019.7
20260906113231 67 34 0.0 1.0 0.00 0.00 0.00 98 1019.5
20260906112730 67 53 2.0 2.0 0.00 0.00 0.00 98 1019.3
20260906112227 67 59 0.0 2.0 0.00 0.00 0.00 98 1019.4
20260906111726 67 64 0.0 2.0 0.00 0.00 0.00 98 1019.3
20260906111221 67 72 1.0 3.0 0.00 0.00 0.00 98 1019.3
20260906110716 67 67 1.0 2.0 0.00 0.00 0.00 98 1019.3
20260906110212 67 59 1.0 6.0 0.00 0.00 0.00 98 1019.2
20260906105711 67 46 0.0 1.0 0.00 0.00 0.00 98 1019.3
20260906105208 67 67 1.0 3.0 0.00 0.00 0.00 98 1019.3
20260906104707 67 331 2.0 4.0 0.00 0.00 0.00 98 1019.3
20260906104207 67 53 0.0 3.0 0.00 0.00 0.00 98 1019.1
20260906103704 67 46 1.0 3.0 0.00 0.00 0.00 98 1019.0
20260906103159 67 39 2.0 2.0 0.00 0.00 0.00 98 1018.9
20260906102655 67 43 1.0 2.0 0.00 0.00 0.00 98 1018.9
20260906102154 67 64 0.0 2.0 0.00 0.00 0.00 98 1019.0
20260906101653 67 67 0.0 3.0 0.00 0.00 0.00 98 1018.8
20260906101148 67 30 3.0 3.0 0.00 0.00 0.00 98 1019.1
20260906100645 67 66 0.0 3.0 0.00 0.00 0.00 98 1018.9
20260906100144 67 49 2.0 3.0 0.00 0.00 0.00 98 1018.9
20260906095639 67 31 0.0 1.0 0.00 0.00 0.00 98 1018.8
20260906095135 68 71 2.0 2.0 0.00 0.00 0.00 98 1018.9
20260906094634 68 18 1.0 3.0 0.00 0.00 0.00 98 1018.7
20260906094130 68 63 1.0 2.0 0.00 0.00 0.00 98 1019.0
20260906093626 68 38 2.0 3.0 0.00 0.00 0.00 97 1019.0
20260906093125 68 53 1.0 3.0 0.00 0.00 0.00 97 1018.8
20260906092620 68 19 1.0 4.0 0.00 0.00 0.00 97 1018.8
20260906092115 68 21 2.0 3.0 0.00 0.00 0.00 97 1018.7
20260906091612 68 55 1.0 2.0 0.00 0.00 0.00 97 1018.7
20260906091109 68 61 2.0 3.0 0.00 0.00 0.00 97 1018.8
20260906090608 68 36 0.0 3.0 0.00 0.00 0.00 97 1018.7
20260906090108 68 70 1.0 3.0 0.00 0.00 0.00 97 1018.5
20260906085607 68 46 1.0 3.0 0.00 0.00 0.00 97 1018.7
20260906085102 68 355 4.0 4.0 0.00 0.00 0.00 97 1018.8
20260906084557 68 26 2.0 2.0 0.00 0.00 0.00 97 1018.8
20260906084055 68 14 3.0 4.0 0.00 0.00 0.00 97 1018.6
20260906083551 69 32 3.0 3.0 0.00 0.00 0.00 97 1018.7
20260906083050 69 352 2.0 3.0 0.00 0.00 0.00 96 1018.8
20260906082546 69 60 2.0 4.0 0.00 0.00 0.00 96 1018.7
20260906082042 69 47 1.0 2.0 0.00 0.00 0.00 96 1018.7
20260906081537 69 26 2.0 2.0 0.00 0.00 0.00 96 1018.7
20260906081033 69 73 0.0 0.0 0.00 0.00 0.00 96 1018.7
20260906080529 69 65 0.0 0.0 0.00 0.00 0.00 96 1018.8
20260906080026 69 27 2.0 2.0 0.00 0.00 0.00 96 1018.7
20260906075525 69 71 0.0 1.0 0.00 0.00 0.00 96 1018.8
20260906075020 69 76 0.0 1.0 0.00 0.00 0.00 96 1018.8
20260906074515 69 68 1.0 1.0 0.00 0.00 0.00 96 1019.0
20260906074013 69 73 0.0 1.0 0.00 0.00 0.00 96 1018.6
20260906073508 69 51 0.0 1.0 0.00 0.00 0.00 96 1018.7
20260906073004 69 39 0.0 1.0 0.00 0.00 0.00 96 1018.8
20260906072459 69 61 0.0 0.0 0.00 0.00 0.00 96 1018.8
20260906071955 69 64 0.0 1.0 0.00 0.00 0.00 96 1019.1
20260906071452 69 72 0.0 2.0 0.00 0.00 0.00 96 1018.7
20260906070947 69 66 0.0 1.0 0.00 0.00 0.00 96 1019.0
20260906070443 69 47 2.0 3.0 0.00 0.00 0.00 96 1018.8
20260906065938 70 62 1.0 3.0 0.00 0.00 0.00 96 1018.8
20260906065437 70 32 1.0 2.0 0.00 0.00 0.00 95 1019.1
20260906064933 70 64 1.0 3.0 0.00 0.00 0.00 95 1019.0
20260906064429 70 65 1.0 3.0 0.00 0.00 0.00 95 1018.8
20260906063924 70 18 5.0 7.0 0.00 0.00 0.00 95 1018.9
20260906063419 70 62 1.0 3.0 0.00 0.00 0.00 95 1018.7
20260906062914 70 68 1.0 2.0 0.00 0.00 0.00 95 1018.7
20260906062414 70 61 0.0 3.0 0.00 0.00 0.00 94 1018.8
20260906061909 70 67 0.0 3.0 0.00 0.00 0.00 94 1018.8
20260906061406 70 33 4.0 7.0 0.00 0.00 0.00 94 1018.7
20260906060906 71 5 2.0 6.0 0.00 0.00 0.00 94 1018.7
20260906060403 71 43 2.0 4.0 0.00 0.00 0.00 93 1018.8
20260906055859 71 47 2.0 3.0 0.00 0.00 0.00 93 1019.0
20260906055355 71 15 4.0 7.0 0.00 0.00 0.00 93 1018.8
20260906054849 71 24 2.0 4.0 0.00 0.00 0.00 93 1019.0
20260906054344 71 37 1.0 3.0 0.00 0.00 0.00 92 1019.0
20260906053841 71 40 5.0 8.0 0.00 0.00 0.00 92 1018.8
20260906053336 71 57 2.0 6.0 0.00 0.00 0.00 92 1018.9
20260906052832 71 37 1.0 3.0 0.00 0.00 0.00 92 1018.9
20260906052328 71 50 4.0 4.0 0.00 0.00 0.00 92 1018.8
20260906051825 71 57 2.0 7.0 0.00 0.00 0.00 92 1018.9
20260906051324 71 60 2.0 2.0 0.00 0.00 0.00 92 1018.7
20260906050820 71 74 2.0 4.0 0.00 0.00 0.00 91 1018.6
20260906050315 71 47 2.0 4.0 0.00 0.00 0.00 91 1018.7
20260906045814 71 66 2.0 3.0 0.00 0.00 0.00 91 1018.5
20260906045308 71 31 0.0 4.0 0.00 0.00 0.00 91 1018.5
20260906044805 71 67 1.0 6.0 0.00 0.00 0.00 91 1018.7
20260906044259 72 40 3.0 4.0 0.00 0.00 0.00 91 1018.5
20260906043755 72 55 2.0 6.0 0.00 0.00 0.00 91 1018.4
20260906043251 71 88 1.0 4.0 0.00 0.00 0.00 91 1018.3
20260906042750 71 35 2.0 10.0 0.00 0.00 0.00 91 1018.4
20260906042250 71 83 2.0 4.0 0.00 0.00 0.00 91 1018.3
20260906041745 71 64 0.0 3.0 0.00 0.00 0.00 91 1018.0
20260906041240 71 81 2.0 4.0 0.00 0.00 0.00 91 1017.8
20260906040736 72 67 3.0 10.0 0.00 0.00 0.00 91 1017.9
20260906040231 71 33 2.0 8.0 0.00 0.00 0.00 92 1017.7
20260906035726 71 35 2.0 7.0 0.00 0.00 0.00 92 1018.0
20260906035222 71 79 0.0 2.0 0.00 0.00 0.00 92 1017.9
20260906034721 71 312 2.0 8.0 0.00 0.00 0.00 92 1017.8
20260906034216 71 1 0.0 3.0 0.00 0.00 0.00 92 1017.7
20260906033712 71 80 0.0 4.0 0.00 0.00 0.00 92 1017.7
20260906033212 71 72 0.0 3.0 0.00 0.00 0.00 91 1017.6
20260906032710 71 43 1.0 4.0 0.00 0.00 0.00 91 1017.7
20260906032209 71 63 3.0 6.0 0.00 0.00 0.00 91 1017.6
20260906031704 71 50 2.0 7.0 0.00 0.00 0.00 91 1017.8
20260906031159 72 51 2.0 6.0 0.00 0.00 0.00 91 1017.8
20260906030659 72 59 2.0 6.0 0.00 0.00 0.00 91 1017.6
20260906030154 72 46 3.0 7.0 0.00 0.00 0.00 90 1017.9
20260906025654 71 35 4.0 9.0 0.00 0.00 0.00 90 1017.8
20260906025153 71 46 2.0 4.0 0.00 0.00 0.00 90 1017.8
20260906024648 71 47 2.0 9.0 0.00 0.00 0.00 90 1017.7
20260906024147 71 49 1.0 3.0 0.00 0.00 0.00 91 1017.9
20260906023643 71 57 2.0 7.0 0.00 0.00 0.00 90 1017.7
20260906023143 71 53 2.0 7.0 0.00 0.00 0.00 90 1017.7
20260906022638 71 60 0.0 6.0 0.00 0.00 0.00 90 1017.8
20260906022134 71 66 0.0 10.0 0.00 0.00 0.00 90 1017.8
20260906021630 72 71 2.0 4.0 0.00 0.00 0.00 90 1017.6
20260906021129 72 86 1.0 4.0 0.00 0.00 0.00 90 1017.6
20260906020629 72 41 4.0 8.0 0.00 0.00 0.00 90 1017.5
20260906020123 72 50 1.0 8.0 0.00 0.00 0.00 90 1017.5
20260906015618 72 73 2.0 6.0 0.00 0.00 0.00 90 1017.8
20260906015116 72 64 3.0 8.0 0.00 0.00 0.00 90 1017.8
20260906014611 72 1 4.0 8.0 0.00 0.00 0.00 89 1017.9
20260906014108 72 60 5.0 9.0 0.00 0.00 0.00 89 1017.7
20260906013603 72 53 7.0 10.0 0.00 0.00 0.00 89 1017.8
20260906013058 72 79 2.0 7.0 0.00 0.00 0.00 88 1017.7
20260906012553 72 73 3.0 7.0 0.00 0.00 0.00 89 1017.8
20260906012052 72 67 6.0 10.0 0.00 0.00 0.00 89 1017.9
20260906011549 72 25 2.0 7.0 0.00 0.00 0.00 89 1017.9
20260906011048 72 49 4.0 6.0 0.00 0.00 0.00 90 1017.7
20260906010544 72 0 6.0 10.0 0.00 0.00 0.00 89 1017.8
20260906010040 72 21 4.0 6.0 0.00 0.00 0.00 89 1017.9
20260906005539 72 28 3.0 7.0 0.00 0.00 0.00 88 1017.5
20260906005039 72 291 3.0 4.0 0.00 0.00 0.00 88 1017.6
20260906004538 73 42 4.0 9.0 0.00 0.00 0.00 88 1017.7
20260906004033 73 355 4.0 7.0 0.00 0.00 0.00 88 1017.6
20260906003528 72 348 4.0 6.0 0.00 0.00 0.00 88 1017.5
20260906003024 72 351 6.0 10.0 0.00 0.00 0.00 88 1017.3
20260906002519 72 351 6.0 16.0 0.00 0.00 0.00 88 1017.2
20260906002013 72 25 3.0 9.0 0.00 0.00 0.00 89 1017.5
20260906001509 72 57 4.0 8.0 0.00 0.00 0.00 90 1017.2
20260906001003 72 358 4.0 8.0 0.00 0.00 0.00 90 1017.1
20260906000500 72 10 5.0 8.0 0.00 0.00 0.00 90 1017.1
20260905235954 72 36 3.0 9.0 0.00 0.00 0.00 90 1017.2
20260905235454 72 79 4.0 10.0 0.00 0.00 0.00 90 1017.0
20260905234949 72 330 7.0 11.0 0.00 0.00 0.00 90 1017.2
20260905234445 73 56 3.0 11.0 0.00 0.00 0.00 90 1017.2
20260905233944 73 50 7.0 10.0 0.00 0.00 0.00 89 1017.1
20260905233440 74 78 5.0 9.0 0.00 0.00 0.00 88 1017.2
20260905232938 74 28 4.0 6.0 0.00 0.00 0.00 88 1017.0
20260905232435 74 67 3.0 6.0 0.00 0.00 0.00 88 1016.9
20260905231930 74 18 3.0 8.0 0.00 0.00 0.00 87 1017.0
20260905231426 75 27 9.0 14.0 0.00 0.00 0.00 86 1016.9
20260905230922 76 43 3.0 11.0 0.00 0.00 0.00 85 1016.9
20260905230420 76 68 8.0 11.0 0.00 0.00 0.00 84 1016.6
20260905225919 77 7 7.0 10.0 0.00 0.00 0.00 83 1016.4
20260905225414 77 64 5.0 10.0 0.00 0.00 0.00 83 1016.5
20260905224909 77 68 3.0 9.0 0.00 0.00 0.00 83 1016.5
20260905224405 78 62 5.0 7.0 0.00 0.00 0.00 83 1016.5
20260905223859 78 57 4.0 9.0 0.00 0.00 0.00 82 1016.3
20260905223358 78 81 3.0 10.0 0.00 0.00 0.00 82 1016.5
20260905222857 80 9 3.0 9.0 0.00 0.00 0.00 81 1016.4
20260905222356 79 72 4.0 11.0 0.00 0.00 0.00 81 1016.3
20260905221852 80 53 4.0 8.0 0.00 0.00 0.00 79 1016.3
20260905221349 80 358 5.0 10.0 0.00 0.00 0.00 78 1016.1
20260905220844 80 69 3.0 7.0 0.00 0.00 0.00 79 1016.1
20260905220341 80 57 4.0 9.0 0.00 0.00 0.00 79 1016.4
20260905215840 81 73 2.0 6.0 0.00 0.00 0.00 78 1016.4
20260905215336 80 60 1.0 8.0 0.00 0.00 0.00 78 1016.4
20260905214832 81 42 2.0 3.0 0.00 0.00 0.00 77 1016.0
20260905214332 82 67 2.0 6.0 0.00 0.00 0.00 75 1016.1
20260905213827 82 24 2.0 10.0 0.00 0.00 0.00 76 1016.1
20260905213323 82 354 4.0 8.0 0.00 0.00 0.00 75 1016.1
20260905212819 82 55 2.0 7.0 0.00 0.00 0.00 74 1015.9
20260905212319 82 16 7.0 8.0 0.00 0.00 0.00 73 1015.9
20260905211818 82 349 5.0 9.0 0.00 0.00 0.00 75 1016.3
20260905211314 81 86 1.0 6.0 0.00 0.00 0.00 78 1016.0
20260905210810 81 138 0.0 4.0 0.00 0.00 0.00 79 1015.9
20260905210309 80 9 3.0 4.0 0.00 0.00 0.00 78 1016.3
20260905205809 80 12 3.0 8.0 0.00 0.00 0.00 78 1016.3
20260905205306 81 64 1.0 4.0 0.00 0.00 0.00 79 1016.0
20260905204802 82 83 1.0 8.0 0.00 0.00 0.00 77 1016.1
20260905204259 80 70 1.0 4.0 0.00 0.00 0.00 79 1016.4
20260905203758 81 294 4.0 10.0 0.00 0.00 0.00 78 1016.5
20260905203253 80 49 1.0 4.0 0.00 0.00 0.00 78 1016.4
20260905202749 80 355 4.0 6.0 0.00 0.00 0.00 78 1016.4
20260905202244 80 341 5.0 7.0 0.00 0.00 0.00 78 1016.5
20260905201739 80 46 3.0 8.0 0.00 0.00 0.00 80 1016.5
20260905201234 80 11 5.0 7.0 0.00 0.00 0.00 79 1016.4
20260905200729 79 47 3.0 8.0 0.00 0.00 0.00 82 1016.4
20260905200225 79 48 3.0 7.0 0.00 0.00 0.00 83 1016.3
20260905195723 78 338 8.0 10.0 0.00 0.00 0.00 83 1016.7
20260905195218 78 43 2.0 4.0 0.00 0.00 0.00 83 1016.6
20260905194714 79 25 7.0 9.0 0.00 0.00 0.00 82 1016.6
20260905194213 78 17 6.0 10.0 0.00 0.00 0.00 83 1016.6
20260905193707 78 62 3.0 8.0 0.00 0.00 0.00 83 1016.6
20260905193202 78 73 2.0 6.0 0.00 0.00 0.00 84 1016.4
20260905192658 78 70 2.0 3.0 0.00 0.00 0.00 83 1016.6
20260905192154 78 1 3.0 8.0 0.00 0.00 0.00 84 1016.8
20260905191654 78 297 6.0 8.0 0.00 0.00 0.00 84 1016.6
20260905191151 78 308 5.0 9.0 0.00 0.00 0.00 84 1016.6
20260905190651 78 358 3.0 10.0 0.00 0.00 0.00 84 1016.7
20260905190150 78 318 3.0 6.0 0.00 0.00 0.00 84 1016.8
20260905185649 78 15 4.0 10.0 0.00 0.00 0.00 84 1016.8
20260905185144 78 333 6.0 9.0 0.00 0.00 0.00 83 1016.9
20260905184643 78 351 5.0 7.0 0.00 0.00 0.00 83 1016.8
20260905184142 78 49 3.0 7.0 0.00 0.00 0.00 84 1016.8
20260905183641 78 335 9.0 11.0 0.00 0.00 0.00 84 1017.0
20260905183137 78 42 2.0 7.0 0.00 0.00 0.00 84 1016.9
20260905182636 79 43 2.0 6.0 0.00 0.00 0.00 83 1017.1
20260905182136 79 339 2.0 7.0 0.00 0.00 0.00 83 1017.3
20260905181631 79 58 2.0 10.0 0.00 0.00 0.00 83 1017.0
20260905181130 79 8 7.0 8.0 0.00 0.00 0.00 83 1016.7
20260905180626 78 43 2.0 6.0 0.00 0.00 0.00 84 1016.8
20260905180121 79 355 8.0 9.0 0.00 0.00 0.00 82 1017.1
20260905175620 79 40 4.0 8.0 0.00 0.00 0.00 83 1016.7
20260905175116 79 48 3.0 8.0 0.00 0.00 0.00 83 1016.6
20260905174611 80 24 3.0 10.0 0.00 0.00 0.00 82 1016.7
20260905174106 80 334 2.0 8.0 0.00 0.00 0.00 82 1016.8
20260905173603 80 105 3.0 6.0 0.00 0.00 0.00 81 1016.7
20260905173058 81 35 5.0 7.0 0.00 0.00 0.00 81 1016.7
20260905172556 81 54 4.0 8.0 0.00 0.00 0.00 80 1016.7
20260905172052 81 328 7.0 9.0 0.00 0.00 0.00 80 1016.8
20260905171548 81 94 3.0 9.0 0.00 0.00 0.00 80 1016.8
20260905171044 81 317 6.0 14.0 0.00 0.00 0.00 80 1016.8
20260905170541 80 43 5.0 7.0 0.00 0.00 0.00 81 1016.7
20260905170035 80 48 8.0 9.0 0.00 0.00 0.00 81 1016.9
20260905165531 80 34 3.0 7.0 0.00 0.00 0.00 82 1016.7
20260905165026 80 95 4.0 9.0 0.00 0.00 0.00 82 1016.8
20260905164526 80 52 1.0 7.0 0.00 0.00 0.00 82 1017.0
20260905164020 81 94 4.0 7.0 0.00 0.00 0.00 81 1016.7
20260905163516 82 19 3.0 10.0 0.00 0.00 0.00 81 1017.0
20260905163012 81 75 0.0 6.0 0.00 0.00 0.00 80 1016.8
20260905162508 82 34 4.0 7.0 0.00 0.00 0.00 80 1016.6
20260905162003 82 99 1.0 6.0 0.00 0.00 0.00 79 1016.7
20260905161502 82 58 3.0 7.0 0.00 0.00 0.00 79 1016.8
20260905161000 81 29 2.0 7.0 0.00 0.00 0.00 80 1016.8
20260905160500 82 86 2.0 7.0 0.00 0.00 0.00 80 1016.7
20260905155959 82 30 4.0 8.0 0.00 0.00 0.00 79 1016.6
20260905155454 81 16 5.0 8.0 0.00 0.00 0.00 80 1016.8
20260905154953 81 71 1.0 6.0 0.00 0.00 0.00 80 1016.6
20260905154448 81 43 3.0 6.0 0.00 0.00 0.00 82 1016.5
20260905153944 81 33 7.0 9.0 0.00 0.00 0.00 81 1016.6
20260905153440 81 326 3.0 9.0 0.00 0.00 0.00 81 1016.5
20260905152939 81 66 5.0 8.0 0.00 0.00 0.00 81 1016.3
20260905152439 80 66 2.0 10.0 0.00 0.00 0.00 83 1016.3
20260905151939 79 46 3.0 8.0 0.00 0.00 0.00 84 1016.4
20260905151435 79 88 1.0 4.0 0.00 0.00 0.00 84 1016.3
20260905150930 78 324 1.0 7.0 0.00 0.00 0.00 86 1016.3
20260905150431 78 18 5.0 7.0 0.00 0.00 0.00 87 1016.3
20260905145927 77 49 3.0 7.0 0.00 0.00 0.00 88 1016.3
20260905145427 77 17 3.0 9.0 0.00 0.00 0.00 88 1016.1
20260905144926 78 9 3.0 9.0 0.00 0.00 0.00 87 1016.1
20260905144422 78 12 4.0 8.0 0.00 0.00 0.00 87 1016.0
20260905143921 78 83 4.0 8.0 0.00 0.00 0.00 86 1015.9
20260905143415 79 357 6.0 10.0 0.00 0.00 0.00 85 1015.8
20260905142914 79 37 4.0 7.0 0.00 0.00 0.00 85 1015.9
20260905142413 78 352 6.0 10.0 0.00 0.00 0.00 85 1016.0
20260905141909 78 43 3.0 9.0 0.00 0.00 0.00 86 1016.1
20260905141404 78 37 5.0 11.0 0.00 0.00 0.00 86 1015.8
20260905140900 78 13 8.0 10.0 0.00 0.00 0.00 86 1015.8
20260905140355 77 82 2.0 6.0 0.00 0.00 0.00 86 1015.7
20260905135854 78 339 5.0 7.0 0.00 0.00 0.00 87 1015.8
20260905135350 77 346 2.0 6.0 0.00 0.00 0.00 88 1015.6
20260905134845 77 60 2.0 3.0 0.00 0.00 0.00 88 1015.8
20260905134344 77 55 3.0 4.0 0.00 0.00 0.00 89 1015.8
20260905133838 75 354 4.0 7.0 0.00 0.00 0.00 92 1015.9
20260905133334 74 358 2.0 9.0 0.00 0.00 0.00 94 1015.9
20260905132833 74 17 2.0 6.0 0.00 0.00 0.00 94 1016.4
20260905132329 74 307 3.0 8.0 0.00 0.00 0.00 95 1016.3
20260905131828 74 7 5.0 7.0 0.00 0.00 0.00 95 1016.3
20260905131324 74 70 2.0 6.0 0.00 0.00 0.00 96 1016.1
20260905130819 74 48 3.0 4.0 0.00 0.00 0.00 96 1015.8
20260905130318 74 52 2.0 6.0 0.00 0.00 0.00 95 1015.7
20260905125813 74 64 2.0 6.0 0.00 0.00 0.00 96 1015.7
20260905125308 74 57 2.0 4.0 0.00 0.00 0.00 96 1015.5
20260905124804 74 29 4.0 6.0 0.00 0.00 0.00 96 1015.2
20260905124300 74 72 1.0 3.0 0.00 0.00 0.00 96 1015.3
20260905123755 74 28 2.0 4.0 0.00 0.00 0.00 97 1015.3
20260905123253 73 349 1.0 3.0 0.00 0.00 0.00 97 1015.4
20260905122752 73 53 1.0 4.0 0.00 0.00 0.00 97 1015.2
20260905122251 73 66 1.0 4.0 0.00 0.00 0.00 98 1015.1
20260905121746 74 7 1.0 2.0 0.00 0.00 0.00 97 1015.0
20260905121243 74 82 1.0 3.0 0.00 0.00 0.00 97 1015.1
20260905120742 74 50 3.0 4.0 0.00 0.00 0.00 97 1014.8
20260905120236 74 73 1.0 4.0 0.00 0.00 0.00 98 1014.9